Torna al catalogo

STARLINK-30435

AttivoComunicazioniVLEO
NORAD 57842·PAYLOAD·🇺🇸 United States

Lanciato Sep 12, 2023 da Vandenberg Space Force Base

Loading…

Prossimi Passaggi (prossime 24 ore)

TLE

AggiornatoSource: CelesTrak SupGP

Epoca: Sep 15, 2026, 02:08 UTC

1 57842C 23141C   26258.08937500  .00047438  00000+0  15253-2 0  2583
2 57842  53.1571 123.0972 0001238  77.0288 214.8372 15.31681773    10

Traccia STARLINK-30435 in tempo reale con AllMySat

Download on the App Store